Regional Weather Roundup
Issued by NWS Raleigh/Durham, NC

Current Version | Previous Version | Text Only | Print | Product List | Glossary On
Versions: 1 2 3 4 5 6 7 8 9 10 11 12 13 14 15 16 17 18 19 20 21 22 23 24 25 26 27
000 ASUS42 KRAH 191010 RWRRAH NORTH CAROLINA WEATHER ROUNDUP NATIONAL WEATHER SERVICE RALEIGH NC 600 AM EDT SAT APR 19 2014 NOTE: "FAIR" INDICATES FEW OR NO CLOUDS BELOW 12,000 FEET WITH NO SIGNIFICANT WEATHER AND/OR OBSTRUCTIONS TO VISIBILITY. NCZ001-053-055-056-065-067-191100- WESTERN NORTH CAROLINA CITY SKY/WX TMP DP RH WIND PRES REMARKS ASHEVILLE LGT RAIN 47 45 93 N7 30.11F JEFFERSON CLOUDY 46 33 62 CALM 30.15F MORGANTON LGT RAIN 47 46 97 CALM 30.18R HICKORY LGT RAIN 46 42 86 NE10 30.13S RUTHERFORDTON RAIN 48 45 88 N6 30.12S MOUNT AIRY DRIZZLE 47 44 87 NE3 30.16S BOONE CLOUDY 44 37 74 CALM 30.15S $$ NCZ021-022-025-041-071-084-088-191100- CENTRAL NORTH CAROLINA CITY SKY/WX TMP DP RH WIND PRES REMARKS CHARLOTTE LGT RAIN 47 46 97 N12G18 30.11F GREENSBORO LGT RAIN 46 43 89 NE9 30.15F WINSTON-SALEM LGT RAIN 46 43 89 NE12 30.17F RALEIGH-DURHAM LGT RAIN 47 44 90 NE7 30.15F FORT BRAGG LGT RAIN 50 48 93 NE7 30.11R FOG FAYETTEVILLE LGT RAIN 50 47 89 NE16 30.08F CHAPEL HILL LGT RAIN 48 46 93 NE5 30.16S BURLINGTON LGT RAIN 47 43 86 N9 30.16F LAURINBURG LGT RAIN 50 49 96 NE20G26 30.05F $$ NCZ011-015-027-028-043-044-047-080-103-191100- NORTHEASTERN NORTH CAROLINA CITY SKY/WX TMP DP RH WIND PRES REMARKS ROCKY MT-WILSO LGT RAIN 47 44 90 NE12 30.16S GREENVILLE RAIN 46 45 93 NE7 30.17R WASHINGTON CLOUDY 47 42 85 NE10 30.15R ELIZABETH CITY LGT RAIN 47 44 90 N14 30.18F MANTEO CLOUDY 49 45 87 NE14 30.16R CAPE HATTERAS CLOUDY 51 51 100 NE12G22 30.11S $$ NCZ078-087-090-091-093-098-101-191100- SOUTHEASTERN NORTH CAROLINA CITY SKY/WX TMP DP RH WIND PRES REMARKS LUMBERTON LGT RAIN 50 48 93 NE18G28 30.03F GOLDSBORO LGT RAIN 47 47 98 NE10 30.10S KINSTON RAIN 47 46 97 N15 30.12F KENANSVILLE RAIN 47 46 96 N12 30.10R NEW BERN HVY RAIN 51 48 89 NE15 30.11F FOG CHERRY POINT RAIN 52 49 89 NE21 30.09S BEAUFORT HVY RAIN 55 54 96 NE14G22 30.06S FOG JACKSONVILLE RAIN 50 50 100 N7 30.06F WILMINGTON HVY RAIN 54 52 93 N9 30.05R FOG $$

USA.gov is the U.S. government's official web portal to all federal, state and local government web resources and services.